Year,Month,Day,Hour,Minute,Value (Times are PST for temperature in C)
2015,06,27,00,00,20.00
2015,06,27,00,01,19.90
2015,06,27,00,02,19.90
2015,06,27,00,03,19.90
2015,06,27,00,04,19.90
2015,06,27,00,05,19.90
2015,06,27,00,06,19.80
2015,06,27,00,07,19.80
2015,06,27,00,08,19.80
2015,06,27,00,09,19.80
2015,06,27,00,10,19.80
2015,06,27,00,11,19.80
2015,06,27,00,12,19.70
2015,06,27,00,13,19.70
2015,06,27,00,14,19.70
2015,06,27,00,15,19.70
2015,06,27,00,16,19.70
2015,06,27,00,17,19.70
2015,06,27,00,18,19.60
2015,06,27,00,19,19.60
2015,06,27,00,20,19.60
2015,06,27,00,21,19.60
2015,06,27,00,22,19.60
2015,06,27,00,23,19.50
2015,06,27,00,24,19.50
2015,06,27,00,25,19.40
2015,06,27,00,26,19.40
2015,06,27,00,27,19.40
2015,06,27,00,28,19.40
2015,06,27,00,29,19.40
2015,06,27,00,30,19.40
2015,06,27,00,31,19.30
2015,06,27,00,32,19.30
2015,06,27,00,33,19.30
2015,06,27,00,34,19.30
2015,06,27,00,35,19.30
2015,06,27,00,36,19.30
2015,06,27,00,37,19.30
2015,06,27,00,38,19.20
2015,06,27,00,39,19.20
2015,06,27,00,40,19.20
2015,06,27,00,41,19.20
2015,06,27,00,42,19.20
2015,06,27,00,43,19.20
2015,06,27,00,44,19.20
2015,06,27,00,45,19.20
2015,06,27,00,46,19.10
2015,06,27,00,47,19.10
2015,06,27,00,48,19.10
2015,06,27,00,49,19.10
2015,06,27,00,50,19.10
2015,06,27,00,51,19.10
2015,06,27,00,52,19.10
2015,06,27,00,53,19.00
2015,06,27,00,54,19.00
2015,06,27,00,55,19.00
2015,06,27,00,56,19.00
2015,06,27,00,57,18.90
2015,06,27,00,58,18.90
2015,06,27,00,59,18.90
2015,06,27,01,00,18.90
2015,06,27,01,01,18.90
2015,06,27,01,02,18.90
2015,06,27,01,03,18.90
2015,06,27,01,04,18.80
2015,06,27,01,05,18.80
2015,06,27,01,06,18.80
2015,06,27,01,07,18.80
2015,06,27,01,08,18.80
2015,06,27,01,09,18.80
2015,06,27,01,10,18.80
2015,06,27,01,11,18.80
2015,06,27,01,12,18.70
2015,06,27,01,13,18.70
2015,06,27,01,14,18.70
2015,06,27,01,15,18.70
2015,06,27,01,16,18.70
2015,06,27,01,17,18.70
2015,06,27,01,18,18.70
2015,06,27,01,19,18.70
2015,06,27,01,20,18.70
2015,06,27,01,21,18.70
2015,06,27,01,22,18.70
2015,06,27,01,23,18.70
2015,06,27,01,24,18.70
2015,06,27,01,25,18.60
2015,06,27,01,26,18.60
2015,06,27,01,27,18.60
2015,06,27,01,28,18.60
2015,06,27,01,29,18.60
2015,06,27,01,30,18.60
2015,06,27,01,31,18.60
2015,06,27,01,32,18.60
2015,06,27,01,33,18.50
2015,06,27,01,34,18.50
2015,06,27,01,35,18.50
2015,06,27,01,36,18.40
2015,06,27,01,37,18.40
2015,06,27,01,38,18.40
2015,06,27,01,39,18.40
2015,06,27,01,40,18.40
2015,06,27,01,41,18.40
2015,06,27,01,42,18.40
2015,06,27,01,43,18.40
2015,06,27,01,44,18.30
2015,06,27,01,45,18.30
2015,06,27,01,46,18.30
2015,06,27,01,47,18.30
2015,06,27,01,48,18.30
2015,06,27,01,49,18.30
2015,06,27,01,50,18.30
2015,06,27,01,51,18.30
2015,06,27,01,52,18.30
2015,06,27,01,53,18.30
2015,06,27,01,54,18.30
2015,06,27,01,55,18.30
2015,06,27,01,56,18.30
2015,06,27,01,57,18.20
2015,06,27,01,58,18.20
2015,06,27,01,59,18.20
2015,06,27,02,00,18.20
2015,06,27,02,01,18.20
2015,06,27,02,02,18.20
2015,06,27,02,03,18.20
2015,06,27,02,04,18.20
2015,06,27,02,05,18.20
2015,06,27,02,06,18.20
2015,06,27,02,07,18.20
2015,06,27,02,08,18.20
2015,06,27,02,09,18.10
2015,06,27,02,10,18.10
2015,06,27,02,11,18.10
2015,06,27,02,12,18.10
2015,06,27,02,13,18.10
2015,06,27,02,14,18.10
2015,06,27,02,15,18.10
2015,06,27,02,16,18.10
2015,06,27,02,17,18.10
2015,06,27,02,18,18.10
2015,06,27,02,19,18.10
2015,06,27,02,20,18.10
2015,06,27,02,21,18.10
2015,06,27,02,22,18.10
2015,06,27,02,23,18.00
2015,06,27,02,24,18.00
2015,06,27,02,25,18.00
2015,06,27,02,26,18.00
2015,06,27,02,27,18.00
2015,06,27,02,28,18.00
2015,06,27,02,29,17.90
2015,06,27,02,30,17.90
2015,06,27,02,31,17.90
2015,06,27,02,32,17.90
2015,06,27,02,33,17.90
2015,06,27,02,34,17.90
2015,06,27,02,35,17.90
2015,06,27,02,36,17.90
2015,06,27,02,37,17.90
2015,06,27,02,38,17.90
2015,06,27,02,39,17.90
2015,06,27,02,40,17.90
2015,06,27,02,41,17.90
2015,06,27,02,42,17.90
2015,06,27,02,43,17.80
2015,06,27,02,44,17.80
2015,06,27,02,45,17.80
2015,06,27,02,46,17.80
2015,06,27,02,47,17.80
2015,06,27,02,48,17.80
2015,06,27,02,49,17.80
2015,06,27,02,50,17.80
2015,06,27,02,51,17.80
2015,06,27,02,52,17.80
2015,06,27,02,53,17.80
2015,06,27,02,54,17.80
2015,06,27,02,55,17.70
2015,06,27,02,56,17.70
2015,06,27,02,57,17.70
2015,06,27,02,58,17.70
2015,06,27,02,59,17.70
2015,06,27,03,00,17.70
2015,06,27,03,01,17.70
2015,06,27,03,02,17.70
2015,06,27,03,03,17.60
2015,06,27,03,04,17.60
2015,06,27,03,05,17.60
2015,06,27,03,06,17.60
2015,06,27,03,07,17.60
2015,06,27,03,08,17.50
2015,06,27,03,09,17.50
2015,06,27,03,10,17.50
2015,06,27,03,11,17.50
2015,06,27,03,12,17.50
2015,06,27,03,13,17.40
2015,06,27,03,14,17.40
2015,06,27,03,15,17.40
2015,06,27,03,16,17.40
2015,06,27,03,17,17.40
2015,06,27,03,18,17.40
2015,06,27,03,19,17.40
2015,06,27,03,20,17.40
2015,06,27,03,21,17.40
2015,06,27,03,22,17.40
2015,06,27,03,23,17.40
2015,06,27,03,24,17.40
2015,06,27,03,25,17.30
2015,06,27,03,26,17.30
2015,06,27,03,27,17.30
2015,06,27,03,28,17.30
2015,06,27,03,29,17.30
2015,06,27,03,30,17.30
2015,06,27,03,31,17.30
2015,06,27,03,32,17.30
2015,06,27,03,33,17.30
2015,06,27,03,34,17.30
2015,06,27,03,35,17.30
2015,06,27,03,36,17.30
2015,06,27,03,37,17.30
2015,06,27,03,38,17.30
2015,06,27,03,39,17.30
2015,06,27,03,40,17.30
2015,06,27,03,41,17.30
2015,06,27,03,42,17.30
2015,06,27,03,43,17.30
2015,06,27,03,44,17.30
2015,06,27,03,45,17.30
2015,06,27,03,46,17.30
2015,06,27,03,47,17.30
2015,06,27,03,48,17.30
2015,06,27,03,49,17.30
2015,06,27,03,50,17.30
2015,06,27,03,51,17.30
2015,06,27,03,52,17.30
2015,06,27,03,53,17.20
2015,06,27,03,54,17.20
2015,06,27,03,55,17.20
2015,06,27,03,56,17.20
2015,06,27,03,57,17.20
2015,06,27,03,58,17.20
2015,06,27,03,59,17.20
2015,06,27,04,00,17.10
2015,06,27,04,01,17.10
2015,06,27,04,02,17.10
2015,06,27,04,03,17.10
2015,06,27,04,04,17.10
2015,06,27,04,05,17.10
2015,06,27,04,06,17.10
2015,06,27,04,07,17.00
2015,06,27,04,08,17.00
2015,06,27,04,09,17.00
2015,06,27,04,10,16.90
2015,06,27,04,11,16.90
2015,06,27,04,12,16.90
2015,06,27,04,13,16.90
2015,06,27,04,14,16.90
2015,06,27,04,15,16.90
2015,06,27,04,16,16.90
2015,06,27,04,17,16.90
2015,06,27,04,18,16.80
2015,06,27,04,19,16.80
2015,06,27,04,20,16.80
2015,06,27,04,21,16.80
2015,06,27,04,22,16.80
2015,06,27,04,23,16.80
2015,06,27,04,24,16.80
2015,06,27,04,25,16.80
2015,06,27,04,26,16.80
2015,06,27,04,27,16.80
2015,06,27,04,28,16.80
2015,06,27,04,29,16.80
2015,06,27,04,30,16.80
2015,06,27,04,31,16.80
2015,06,27,04,32,16.80
2015,06,27,04,33,16.80
2015,06,27,04,34,16.80
2015,06,27,04,35,16.80
2015,06,27,04,36,16.80
2015,06,27,04,37,16.80
2015,06,27,04,38,16.70
2015,06,27,04,39,16.70
2015,06,27,04,40,16.70
2015,06,27,04,41,16.70
2015,06,27,04,42,16.70
2015,06,27,04,43,16.70
2015,06,27,04,44,16.70
2015,06,27,04,45,16.70
2015,06,27,04,46,16.70
2015,06,27,04,47,16.70
2015,06,27,04,48,16.70
2015,06,27,04,49,16.60
2015,06,27,04,50,16.60
2015,06,27,04,51,16.60
2015,06,27,04,52,16.60
2015,06,27,04,53,16.60
2015,06,27,04,54,16.60
2015,06,27,04,55,16.60
2015,06,27,04,56,16.60
2015,06,27,04,57,16.60
2015,06,27,04,58,16.60
2015,06,27,04,59,16.60
2015,06,27,05,00,16.60
2015,06,27,05,01,16.50
2015,06,27,05,02,16.50
2015,06,27,05,03,16.50
2015,06,27,05,04,16.50
2015,06,27,05,05,16.50
2015,06,27,05,06,16.50
2015,06,27,05,07,16.50
2015,06,27,05,08,16.50
2015,06,27,05,09,16.50
2015,06,27,05,10,16.50
2015,06,27,05,11,16.50
2015,06,27,05,12,16.50
2015,06,27,05,13,16.50
2015,06,27,05,14,16.50
2015,06,27,05,15,16.50
2015,06,27,05,16,16.50
2015,06,27,05,17,16.50
2015,06,27,05,18,16.50
2015,06,27,05,19,16.50
2015,06,27,05,20,16.50
2015,06,27,05,21,16.50
2015,06,27,05,22,16.50
2015,06,27,05,23,16.50
2015,06,27,05,24,16.50
2015,06,27,05,25,16.50
2015,06,27,05,26,16.50
2015,06,27,05,27,16.50
2015,06,27,05,28,16.50
2015,06,27,05,29,16.50
2015,06,27,05,30,16.50
2015,06,27,05,31,16.50
2015,06,27,05,32,16.40
2015,06,27,05,33,16.40
2015,06,27,05,34,16.40
2015,06,27,05,35,16.40
2015,06,27,05,36,16.40
2015,06,27,05,37,16.40
2015,06,27,05,38,16.40
2015,06,27,05,39,16.40
2015,06,27,05,40,16.40
2015,06,27,05,41,16.40
2015,06,27,05,42,16.40
2015,06,27,05,43,16.40
2015,06,27,05,44,16.40
2015,06,27,05,45,16.30
2015,06,27,05,46,16.30
2015,06,27,05,47,16.30
2015,06,27,05,48,16.30
2015,06,27,05,49,16.30
2015,06,27,05,50,16.30
2015,06,27,05,51,16.30
2015,06,27,05,52,16.30
2015,06,27,05,53,16.30
2015,06,27,05,54,16.30
2015,06,27,05,55,16.30
2015,06,27,05,56,16.30
2015,06,27,05,57,16.30
2015,06,27,05,58,16.30
2015,06,27,05,59,16.30
2015,06,27,06,00,16.30
2015,06,27,06,01,16.30
2015,06,27,06,02,16.20
2015,06,27,06,03,16.20
2015,06,27,06,04,16.20
2015,06,27,06,05,16.20
2015,06,27,06,06,16.20
2015,06,27,06,07,16.20
2015,06,27,06,08,16.20
2015,06,27,06,09,16.20
2015,06,27,06,10,16.20
2015,06,27,06,11,16.20
2015,06,27,06,12,16.20
2015,06,27,06,13,16.20
2015,06,27,06,14,16.20
2015,06,27,06,15,16.20
2015,06,27,06,16,16.20
2015,06,27,06,17,16.20
2015,06,27,06,18,16.20
2015,06,27,06,19,16.20
2015,06,27,06,20,16.20
2015,06,27,06,21,16.20
2015,06,27,06,22,16.30
2015,06,27,06,23,16.30
2015,06,27,06,24,16.30
2015,06,27,06,25,16.30
2015,06,27,06,26,16.30
2015,06,27,06,27,16.30
2015,06,27,06,28,16.30
2015,06,27,06,29,16.30
2015,06,27,06,30,16.30
2015,06,27,06,31,16.30
2015,06,27,06,32,16.30
2015,06,27,06,33,16.30
2015,06,27,06,34,16.30
2015,06,27,06,35,16.30
2015,06,27,06,36,16.30
2015,06,27,06,37,16.30
2015,06,27,06,38,16.30
2015,06,27,06,39,16.30
2015,06,27,06,40,16.30
2015,06,27,06,41,16.30
2015,06,27,06,42,16.30
2015,06,27,06,43,16.30
2015,06,27,06,44,16.30
2015,06,27,06,45,16.30
2015,06,27,06,46,16.30
2015,06,27,06,47,16.30
2015,06,27,06,48,16.30
2015,06,27,06,49,16.30
2015,06,27,06,50,16.30
2015,06,27,06,51,16.30
2015,06,27,06,52,16.30
2015,06,27,06,53,16.30
2015,06,27,06,54,16.30
2015,06,27,06,55,16.30
2015,06,27,06,56,16.30
2015,06,27,06,57,16.30
2015,06,27,06,58,16.30
2015,06,27,06,59,16.40
2015,06,27,07,00,16.40
2015,06,27,07,01,16.40
2015,06,27,07,02,16.40
2015,06,27,07,03,16.40
2015,06,27,07,04,16.40
2015,06,27,07,05,16.40
2015,06,27,07,06,16.40
2015,06,27,07,07,16.40
2015,06,27,07,08,16.40
2015,06,27,07,09,16.40
2015,06,27,07,10,16.40
2015,06,27,07,11,16.40
2015,06,27,07,12,16.40
2015,06,27,07,13,16.40
2015,06,27,07,14,16.40
2015,06,27,07,15,16.40
2015,06,27,07,16,16.40
2015,06,27,07,17,16.40
2015,06,27,07,18,16.50
2015,06,27,07,19,16.50
2015,06,27,07,20,16.50
2015,06,27,07,21,16.50
2015,06,27,07,22,16.50
2015,06,27,07,23,16.50
2015,06,27,07,24,16.60
2015,06,27,07,25,16.60
2015,06,27,07,26,16.60
2015,06,27,07,27,16.60
2015,06,27,07,28,16.60
2015,06,27,07,29,16.60
2015,06,27,07,30,16.60
2015,06,27,07,31,16.60
2015,06,27,07,32,16.60
2015,06,27,07,33,16.60
2015,06,27,07,34,16.70
2015,06,27,07,35,16.70
2015,06,27,07,36,16.70
2015,06,27,07,37,16.70
2015,06,27,07,38,16.70
2015,06,27,07,39,16.70
2015,06,27,07,40,16.70
2015,06,27,07,41,16.70
2015,06,27,07,42,16.80
2015,06,27,07,43,16.80
2015,06,27,07,44,16.80
2015,06,27,07,45,16.80
2015,06,27,07,46,16.80
2015,06,27,07,47,16.80
2015,06,27,07,48,16.80
2015,06,27,07,49,16.80
2015,06,27,07,50,16.90
2015,06,27,07,51,16.90
2015,06,27,07,52,16.90
2015,06,27,07,53,16.90
2015,06,27,07,54,17.00
2015,06,27,07,55,17.00
2015,06,27,07,56,17.00
2015,06,27,07,57,17.10
2015,06,27,07,58,17.10
2015,06,27,07,59,17.10
2015,06,27,08,00,17.20
2015,06,27,08,01,17.20
2015,06,27,08,02,17.20
2015,06,27,08,03,17.20
2015,06,27,08,04,17.20
2015,06,27,08,05,17.30
2015,06,27,08,06,17.30
2015,06,27,08,07,17.30
2015,06,27,08,08,17.30
2015,06,27,08,09,17.40
2015,06,27,08,10,17.40
2015,06,27,08,11,17.40
2015,06,27,08,12,17.40
2015,06,27,08,13,17.50
2015,06,27,08,14,17.50
2015,06,27,08,15,17.50
2015,06,27,08,16,17.60
2015,06,27,08,17,17.60
2015,06,27,08,18,17.60
2015,06,27,08,19,17.70
2015,06,27,08,20,17.70
2015,06,27,08,21,17.70
2015,06,27,08,22,17.80
2015,06,27,08,23,17.80
2015,06,27,08,24,17.80
2015,06,27,08,25,17.90
2015,06,27,08,26,17.90
2015,06,27,08,27,17.90
2015,06,27,08,28,18.00
2015,06,27,08,29,18.00
2015,06,27,08,30,18.10
2015,06,27,08,31,18.10
2015,06,27,08,32,18.10
2015,06,27,08,33,18.10
2015,06,27,08,34,18.20
2015,06,27,08,35,18.20
2015,06,27,08,36,18.20
2015,06,27,08,37,18.20
2015,06,27,08,38,18.30
2015,06,27,08,39,18.30
2015,06,27,08,40,18.30
2015,06,27,08,41,18.40
2015,06,27,08,42,18.50
2015,06,27,08,43,18.50
2015,06,27,08,44,18.60
2015,06,27,08,45,18.60
2015,06,27,08,46,18.60
2015,06,27,08,47,18.70
2015,06,27,08,48,18.70
2015,06,27,08,49,18.70
2015,06,27,08,50,18.80
2015,06,27,08,51,18.80
2015,06,27,08,52,18.80
2015,06,27,08,53,18.90
2015,06,27,08,54,18.90
2015,06,27,08,55,19.00
2015,06,27,08,56,19.10
2015,06,27,08,57,19.10
2015,06,27,08,58,19.20
2015,06,27,08,59,19.20
2015,06,27,09,00,19.30
2015,06,27,09,01,19.30
2015,06,27,09,02,19.40
2015,06,27,09,03,19.50
2015,06,27,09,04,19.50
2015,06,27,09,05,19.60
2015,06,27,09,06,19.70
2015,06,27,09,07,19.70
2015,06,27,09,08,19.80
2015,06,27,09,09,19.90
2015,06,27,09,10,19.90
2015,06,27,09,11,20.00
2015,06,27,09,12,20.20
2015,06,27,09,13,20.20
2015,06,27,09,14,20.40
2015,06,27,09,15,20.50
2015,06,27,09,16,20.60
2015,06,27,09,17,20.80
2015,06,27,09,18,20.90
2015,06,27,09,19,21.00
2015,06,27,09,20,21.10
2015,06,27,09,21,21.20
2015,06,27,09,22,21.30
2015,06,27,09,23,21.30
2015,06,27,09,24,21.40
2015,06,27,09,25,21.50
2015,06,27,09,26,21.50
2015,06,27,09,27,21.70
2015,06,27,09,28,21.80
2015,06,27,09,29,21.80
2015,06,27,09,30,21.90
2015,06,27,09,31,22.00
2015,06,27,09,32,22.10
2015,06,27,09,33,22.20
2015,06,27,09,34,22.20
2015,06,27,09,35,22.30
2015,06,27,09,36,22.30
2015,06,27,09,37,22.40
2015,06,27,09,38,22.40
2015,06,27,09,39,22.50
2015,06,27,09,40,22.50
2015,06,27,09,41,22.60
2015,06,27,09,42,22.60
2015,06,27,09,43,22.70
2015,06,27,09,44,22.70
2015,06,27,09,45,22.80
2015,06,27,09,46,22.80
2015,06,27,09,47,22.90
2015,06,27,09,48,22.90
2015,06,27,09,49,23.00
2015,06,27,09,50,23.00
2015,06,27,09,51,23.10
2015,06,27,09,52,23.10
2015,06,27,09,53,23.20
2015,06,27,09,54,23.20
2015,06,27,09,55,23.30
2015,06,27,09,56,23.30
2015,06,27,09,57,23.30
2015,06,27,09,58,23.40
2015,06,27,09,59,23.40
2015,06,27,10,00,23.50
2015,06,27,10,01,23.50
2015,06,27,10,02,23.60
2015,06,27,10,03,23.60
2015,06,27,10,04,23.70
2015,06,27,10,05,23.70
2015,06,27,10,06,23.80
2015,06,27,10,07,23.80
2015,06,27,10,08,23.80
2015,06,27,10,09,23.80
2015,06,27,10,10,23.90
2015,06,27,10,11,23.90
2015,06,27,10,12,23.90
2015,06,27,10,13,23.90
2015,06,27,10,14,23.90
2015,06,27,10,15,23.90
2015,06,27,10,16,24.00
2015,06,27,10,17,24.00
2015,06,27,10,18,24.10
2015,06,27,10,19,24.10
2015,06,27,10,20,24.20
2015,06,27,10,21,24.20
2015,06,27,10,22,24.30
2015,06,27,10,23,24.40
2015,06,27,10,24,24.40
2015,06,27,10,25,24.50
2015,06,27,10,26,24.50
2015,06,27,10,27,24.60
2015,06,27,10,28,24.60
2015,06,27,10,29,24.60
2015,06,27,10,30,24.60
2015,06,27,10,31,24.70
2015,06,27,10,32,24.70
2015,06,27,10,33,24.70
2015,06,27,10,34,24.70
2015,06,27,10,35,24.80
2015,06,27,10,36,24.80
2015,06,27,10,37,24.80
2015,06,27,10,38,24.90
2015,06,27,10,39,24.90
2015,06,27,10,40,25.00
2015,06,27,10,41,25.00
2015,06,27,10,42,25.10
2015,06,27,10,43,25.10
2015,06,27,10,44,25.20
2015,06,27,10,45,25.20
2015,06,27,10,46,25.30
2015,06,27,10,47,25.30
2015,06,27,10,48,25.40
2015,06,27,10,49,25.50
2015,06,27,10,50,25.50
2015,06,27,10,51,25.60
2015,06,27,10,52,25.60
2015,06,27,10,53,25.60
2015,06,27,10,54,25.60
2015,06,27,10,55,25.50
2015,06,27,10,56,25.60
2015,06,27,10,57,25.60
2015,06,27,10,58,25.60
2015,06,27,10,59,25.60
2015,06,27,11,00,25.60
2015,06,27,11,01,25.60
2015,06,27,11,02,25.60
2015,06,27,11,03,25.60
2015,06,27,11,04,25.60
2015,06,27,11,05,25.60
2015,06,27,11,06,25.70
2015,06,27,11,07,25.70
2015,06,27,11,08,25.80
2015,06,27,11,09,25.80
2015,06,27,11,10,25.90
2015,06,27,11,11,25.90
2015,06,27,11,12,26.00
2015,06,27,11,13,26.10
2015,06,27,11,14,26.20
2015,06,27,11,15,26.30
2015,06,27,11,16,26.40
2015,06,27,11,17,26.40
2015,06,27,11,18,26.50
2015,06,27,11,19,26.50
2015,06,27,11,20,26.50
2015,06,27,11,21,26.60
2015,06,27,11,22,26.60
2015,06,27,11,23,26.70
2015,06,27,11,24,26.80
2015,06,27,11,25,26.80
2015,06,27,11,26,26.80
2015,06,27,11,27,26.90
2015,06,27,11,28,26.90
2015,06,27,11,29,26.80
2015,06,27,11,30,26.80
2015,06,27,11,31,26.90
2015,06,27,11,32,26.90
2015,06,27,11,33,26.90
2015,06,27,11,34,27.00
2015,06,27,11,35,27.00
2015,06,27,11,36,27.00
2015,06,27,11,37,27.10
2015,06,27,11,38,27.20
2015,06,27,11,39,27.30
2015,06,27,11,40,27.30
2015,06,27,11,41,27.40
2015,06,27,11,42,27.40
2015,06,27,11,43,27.40
2015,06,27,11,44,27.50
2015,06,27,11,45,27.50
2015,06,27,11,46,27.50
2015,06,27,11,47,27.50
2015,06,27,11,48,27.40
2015,06,27,11,49,27.40
2015,06,27,11,50,27.40
2015,06,27,11,51,27.40
2015,06,27,11,52,27.50
2015,06,27,11,53,27.50
2015,06,27,11,54,27.60
2015,06,27,11,55,27.60
2015,06,27,11,56,27.70
2015,06,27,11,57,27.70
2015,06,27,11,58,27.80
2015,06,27,11,59,27.80
2015,06,27,12,00,27.80
2015,06,27,12,01,27.90
2015,06,27,12,02,27.90
2015,06,27,12,03,27.90
2015,06,27,12,04,27.90
2015,06,27,12,05,28.00
2015,06,27,12,06,28.00
2015,06,27,12,07,28.10
2015,06,27,12,08,28.10
2015,06,27,12,09,28.20
2015,06,27,12,10,28.20
2015,06,27,12,11,28.30
2015,06,27,12,12,28.30
2015,06,27,12,13,28.40
2015,06,27,12,14,28.50
2015,06,27,12,15,28.50
2015,06,27,12,16,28.60
2015,06,27,12,17,28.60
2015,06,27,12,18,28.70
2015,06,27,12,19,28.70
2015,06,27,12,20,28.70
2015,06,27,12,21,28.80
2015,06,27,12,22,28.90
2015,06,27,12,23,29.00
2015,06,27,12,24,29.00
2015,06,27,12,25,29.10
2015,06,27,12,26,29.10
2015,06,27,12,27,29.00
2015,06,27,12,28,29.00
2015,06,27,12,29,29.00
2015,06,27,12,30,29.00
2015,06,27,12,31,29.10
2015,06,27,12,32,29.10
2015,06,27,12,33,29.20
2015,06,27,12,34,29.20
2015,06,27,12,35,29.20
2015,06,27,12,36,29.20
2015,06,27,12,37,29.20
2015,06,27,12,38,29.20
2015,06,27,12,39,29.10
2015,06,27,12,40,29.10
2015,06,27,12,41,29.10
2015,06,27,12,42,29.00
2015,06,27,12,43,29.00
2015,06,27,12,44,28.90
2015,06,27,12,45,28.90
2015,06,27,12,46,28.90
2015,06,27,12,47,28.90
2015,06,27,12,48,28.90
2015,06,27,12,49,28.90
2015,06,27,12,50,28.90
2015,06,27,12,51,28.90
2015,06,27,12,52,28.90
2015,06,27,12,53,28.90
2015,06,27,12,54,28.90
2015,06,27,12,55,28.90
2015,06,27,12,56,28.90
2015,06,27,12,57,28.90
2015,06,27,12,58,28.90
2015,06,27,12,59,28.90
2015,06,27,13,00,28.90
2015,06,27,13,01,28.90
2015,06,27,13,02,29.00
2015,06,27,13,03,29.00
2015,06,27,13,04,29.00
2015,06,27,13,05,29.00
2015,06,27,13,06,28.90
2015,06,27,13,07,28.90
2015,06,27,13,08,28.90
2015,06,27,13,09,28.90
2015,06,27,13,10,29.00
2015,06,27,13,11,29.00
2015,06,27,13,12,29.10
2015,06,27,13,13,29.10
2015,06,27,13,14,29.10
2015,06,27,13,15,29.20
2015,06,27,13,16,29.20
2015,06,27,13,17,29.20
2015,06,27,13,18,29.30
2015,06,27,13,19,29.30
2015,06,27,13,20,29.30
2015,06,27,13,21,29.30
2015,06,27,13,22,29.30
2015,06,27,13,23,29.30
2015,06,27,13,24,29.20
2015,06,27,13,25,29.20
2015,06,27,13,26,29.30
2015,06,27,13,27,29.30
2015,06,27,13,28,29.40
2015,06,27,13,29,29.40
2015,06,27,13,30,29.50
2015,06,27,13,31,29.60
2015,06,27,13,32,29.60
2015,06,27,13,33,29.70
2015,06,27,13,34,29.70
2015,06,27,13,35,29.80
2015,06,27,13,36,29.80
2015,06,27,13,37,29.80
2015,06,27,13,38,29.80
2015,06,27,13,39,29.80
2015,06,27,13,40,29.80
2015,06,27,13,41,29.90
2015,06,27,13,42,29.90
2015,06,27,13,43,29.90
2015,06,27,13,44,30.00
2015,06,27,13,45,30.00
2015,06,27,13,46,30.00
2015,06,27,13,47,30.10
2015,06,27,13,48,30.10
2015,06,27,13,49,30.10
2015,06,27,13,50,30.20
2015,06,27,13,51,30.20
2015,06,27,13,52,30.30
2015,06,27,13,53,30.30
2015,06,27,13,54,30.40
2015,06,27,13,55,30.50
2015,06,27,13,56,30.50
2015,06,27,13,57,30.60
2015,06,27,13,58,30.60
2015,06,27,13,59,30.60
2015,06,27,14,00,30.70
2015,06,27,14,01,30.80
2015,06,27,14,02,30.90
2015,06,27,14,03,31.00
2015,06,27,14,04,31.10
2015,06,27,14,05,31.10
2015,06,27,14,06,31.20
2015,06,27,14,07,31.20
2015,06,27,14,08,31.30
2015,06,27,14,09,31.30
2015,06,27,14,10,31.40
2015,06,27,14,11,31.40
2015,06,27,14,12,31.50
2015,06,27,14,13,31.50
2015,06,27,14,14,31.60
2015,06,27,14,15,31.60
2015,06,27,14,16,31.70
2015,06,27,14,17,31.70
2015,06,27,14,18,31.70
2015,06,27,14,19,31.80
2015,06,27,14,20,31.80
2015,06,27,14,21,31.90
2015,06,27,14,22,31.90
2015,06,27,14,23,32.00
2015,06,27,14,24,32.00
2015,06,27,14,25,32.10
2015,06,27,14,26,32.10
2015,06,27,14,27,32.10
2015,06,27,14,28,32.20
2015,06,27,14,29,32.20
2015,06,27,14,30,32.30
2015,06,27,14,31,32.30
2015,06,27,14,32,32.40
2015,06,27,14,33,32.50
2015,06,27,14,34,32.60
2015,06,27,14,35,32.70
2015,06,27,14,36,32.80
2015,06,27,14,37,32.90
2015,06,27,14,38,33.00
2015,06,27,14,39,33.10
2015,06,27,14,40,33.20
2015,06,27,14,41,33.20
2015,06,27,14,42,33.30
2015,06,27,14,43,33.40
2015,06,27,14,44,33.40
2015,06,27,14,45,33.50
2015,06,27,14,46,33.50
2015,06,27,14,47,33.60
2015,06,27,14,48,33.60
2015,06,27,14,49,33.60
2015,06,27,14,50,33.60
2015,06,27,14,51,33.60
2015,06,27,14,52,33.70
2015,06,27,14,53,33.80
2015,06,27,14,54,33.80
2015,06,27,14,55,33.90
2015,06,27,14,56,33.90
2015,06,27,14,57,34.00
2015,06,27,14,58,34.00
2015,06,27,14,59,34.10
2015,06,27,15,00,34.10
2015,06,27,15,01,34.20
2015,06,27,15,02,34.30
2015,06,27,15,03,34.30
2015,06,27,15,04,34.40
2015,06,27,15,05,34.40
2015,06,27,15,06,34.40
2015,06,27,15,07,34.40
2015,06,27,15,08,34.40
2015,06,27,15,09,34.50
2015,06,27,15,10,34.50
2015,06,27,15,11,34.60
2015,06,27,15,12,34.60
2015,06,27,15,13,34.70
2015,06,27,15,14,34.70
2015,06,27,15,15,34.70
2015,06,27,15,16,34.70
2015,06,27,15,17,34.70
2015,06,27,15,18,34.70
2015,06,27,15,19,34.70
2015,06,27,15,20,34.70
2015,06,27,15,21,34.70
2015,06,27,15,22,34.60
2015,06,27,15,23,34.60
2015,06,27,15,24,34.60
2015,06,27,15,25,34.60
2015,06,27,15,26,34.50
2015,06,27,15,27,34.50
2015,06,27,15,28,34.60
2015,06,27,15,29,34.60
2015,06,27,15,30,34.60
2015,06,27,15,31,34.60
2015,06,27,15,32,34.70
2015,06,27,15,33,34.80
2015,06,27,15,34,34.80
2015,06,27,15,35,34.90
2015,06,27,15,36,34.90
2015,06,27,15,37,34.90
2015,06,27,15,38,34.90
2015,06,27,15,39,34.90
2015,06,27,15,40,34.80
2015,06,27,15,41,34.80
2015,06,27,15,42,34.80
2015,06,27,15,43,34.80
2015,06,27,15,44,34.90
2015,06,27,15,45,34.90
2015,06,27,15,46,34.90
2015,06,27,15,47,34.90
2015,06,27,15,48,34.90
2015,06,27,15,49,34.90
2015,06,27,15,50,34.80
2015,06,27,15,51,34.80
2015,06,27,15,52,34.90
2015,06,27,15,53,34.90
2015,06,27,15,54,34.90
2015,06,27,15,55,34.90
2015,06,27,15,56,34.90
2015,06,27,15,57,35.00
2015,06,27,15,58,34.90
2015,06,27,15,59,34.90
2015,06,27,16,00,34.90
2015,06,27,16,01,34.90
2015,06,27,16,02,34.90
2015,06,27,16,03,34.80
2015,06,27,16,04,34.70
2015,06,27,16,05,34.60
2015,06,27,16,06,34.50
2015,06,27,16,07,34.50
2015,06,27,16,08,34.40
2015,06,27,16,09,34.40
2015,06,27,16,10,34.40
2015,06,27,16,11,34.40
2015,06,27,16,12,34.50
2015,06,27,16,13,34.50
2015,06,27,16,14,34.50
2015,06,27,16,15,34.40
2015,06,27,16,16,34.40
2015,06,27,16,17,34.30
2015,06,27,16,18,34.10
2015,06,27,16,19,34.10
2015,06,27,16,20,33.90
2015,06,27,16,21,33.90
2015,06,27,16,22,33.80
2015,06,27,16,23,33.80
2015,06,27,16,24,33.80
2015,06,27,16,25,33.90
2015,06,27,16,26,33.90
2015,06,27,16,27,33.80
2015,06,27,16,28,33.90
2015,06,27,16,29,33.90
2015,06,27,16,30,33.80
2015,06,27,16,31,33.70
2015,06,27,16,32,33.60
2015,06,27,16,33,33.50
2015,06,27,16,34,33.40
2015,06,27,16,35,33.40
2015,06,27,16,36,33.30
2015,06,27,16,37,33.30
2015,06,27,16,38,33.20
2015,06,27,16,39,33.20
2015,06,27,16,40,33.10
2015,06,27,16,41,33.00
2015,06,27,16,42,33.00
2015,06,27,16,43,33.00
2015,06,27,16,44,33.00
2015,06,27,16,45,33.00
2015,06,27,16,46,33.00
2015,06,27,16,47,33.10
2015,06,27,16,48,33.10
2015,06,27,16,49,33.00
2015,06,27,16,50,33.00
2015,06,27,16,51,32.90
2015,06,27,16,52,32.80
2015,06,27,16,53,32.70
2015,06,27,16,54,32.70
2015,06,27,16,55,32.60
2015,06,27,16,56,32.50
2015,06,27,16,57,32.50
2015,06,27,16,58,32.40
2015,06,27,16,59,32.40
2015,06,27,17,00,32.40
2015,06,27,17,01,32.30
2015,06,27,17,02,32.30
2015,06,27,17,03,32.30
2015,06,27,17,04,32.30
2015,06,27,17,05,32.30
2015,06,27,17,06,32.30
2015,06,27,17,07,32.20
2015,06,27,17,08,32.20
2015,06,27,17,09,32.20
2015,06,27,17,10,32.20
2015,06,27,17,11,32.20
2015,06,27,17,12,32.20
2015,06,27,17,13,32.20
2015,06,27,17,14,32.20
2015,06,27,17,15,32.20
2015,06,27,17,16,32.20
2015,06,27,17,17,32.20
2015,06,27,17,18,32.20
2015,06,27,17,19,32.20